Погода Гышгы

Погода Гышгы : погода сейчас, прогноз погоды и архив. Всё, что Вы хотите узнать о погоде Гышгы!

Поиск расширенной информации на нашем сайте:

Другие новости

Новости СМИ2

Главная страница сайта

Новости сайта

02.10.2013

Напоминаем, что на нашем новом сайте вы можете получить высокодетализированные прогнозы погоды по пунктам России, СНГ и мира (включающие важные для авиации метеовеличины, такие как направление и скорость ветра, видимость, явления погоды, количество и форма облачности, нижняя и верхняя граница облачности), а также ознакомиться с разнообразными материалами по авиационной метеорологии и подборкой полезных ссылок на эту тему.

Сайт Метеоцентр.Азия посвящён разработке технологий оптимизации авиаметеорологического обслуживания, включая проектирование и перспективное создание нескольких автоматизированных авиаметеорологических систем:
- система выпуска высокодетальных прогностических карт явлений погоды для нижнего воздушного пространства по России и ближнему зарубежью;
- система верификации прогнозов TAF (выпускаемых синоптиками официальных АМСГ РФ и ближнего зарубежья) и AUTOTAF (выпускаемых сайтом Метеоцентр.Азия) - выявление ошибок, онлайн-сопоставление с фактической погодой METAR, автоматическое внесение коррективов в прогнозы при резком отклонении фактической погоды от прогноза, подсчёт оправдываемости прогнозов по элементам и в целом;
- система обработки, анализа и отображения авиаметеорологической информации для применения провайдерами метеорологической информации.

Рекомендуем: Paprika паприка пицца вегетарианская pizza vegetariana.

Погода Гышгы - сегодня

Время (UTC), дата Ветер
(°,м/с) 
Видим.   Явления Облачность Т
(°С)
Тd
(°С)
f(%) Тe
(°С)
Pmin
(гПа)
dP
(гПа)
Po
(мм)
O2
(г/м3)
Тmin Tmax R s Состояние
почвы
06 24.05.17 010 (С) 4000 м    8/0 верхняя 
[Ci sp]
+29.6 +10.3 30 +32  1008.5  0.3  705  254  +17.1         
09 24.05.17 040 (СВ) 4000 м    8/0 верхняя 
[Ci sp]
+34.6 +10.4 23 +38  1005.5  -1.7  704  250           
12 24.05.17 090 (В) 4000 м    9/0 средняя, верхняя 
[Ac As|Ci sp]
+36.1 +3 13 +36  1003.7  -1.5  703  250           
15 24.05.17 тихо ()   4000 м    9/0 средняя, верхняя 
[Ac lent|Ci sp]
+31.4 +9.3 25 +33  1004.1  -0.5  702  252    +36.6       
18 24.05.17 010 (С) 4000 м    ясно 
+25.4 +8.6 34 +26  1006.1  0.6  703  258    +36.6       
21 24.05.17 230 (ЮЗ) 4000 м    ясно 
+23 +7.8 38 +23  1006.7  703  260           
00 25.05.17 220 (ЮЗ) 4000 м    ясно 
+18.5 +7 47 +19  1008.7  0.7  703  264           
03 25.05.17 250 (З) 4000 м    6/0 средняя 
[Ac cast]
+19.8 +6.7 42 +21  1009.9  1.5  705  264           
06 25.05.17 070 (В) 4000 м    4/0 средняя 
[Ac cast]
+31 +5.5 20 +31  1007.8  0.5  705  254  +17.8         
09 25.05.17 010 (С) 4000 м    3/0 верхняя 
[Ci fib]
+35.3 +2.7 13 +35  1006.5  -0.4  705  251           
12 25.05.17 060 (СВ) 4000 м    3/0 верхняя 
[Ci fib]
+36.4 -2.5 8 +36  1005.4  -0.8  704  250           
15 25.05.17 030 (СВ) 4000 м    3/0 верхняя 
[Ci fib]
+33 +4.3 17 +33  1005.7  -0.3  704  252    +36.6       
18 25.05.17 тихо ()   4000 м    ясно 
+24 +7.4 34 +24  1008.8  0.9  704  260    +36.6       
21 25.05.17 280 (З) 4000 м    ясно 
+20.5 +6.4 40 +21  1009.9  0.2  705  263           
00 26.05.17 110 (В) 4000 м    ясно 
+17.4 +7 50 +19  1012.1  1.3  706  266           
03 26.05.17 020 (С) 4000 м    ясно 
+24.2 +12.4 48 +30  1013.2  2.8  708  260           
06 26.05.17 110 (В) 4000 м    ясно 
+27.9 +11.3 36 +32  1012.6  0.2  708  257  +17.1         
09 26.05.17 080 (В) 4000 м    ясно 
+31.9 +10.6 27 +35  1010.1  -1.4  707  253           
12 26.05.17 030 (СВ) 4000 м    ясно 
+33.4 +8.5 22 +34  1007.5  -2.2  705  252           
15 26.05.17 030 (СВ) 4000 м    ясно 
+32.2 +8.6 23 +33  1007.4  -0.4  705  253    +33.6       
18 26.05.17 тихо ()   4000 м    ясно 
+26.2 +11.5 40 +31  1010.5  1.7  706  257    +33.6       
21 26.05.17 110 (В) 4000 м    ясно 
+22.4 +11.1 49 +26  1012  0.5  707  261           
00 27.05.17 220 (ЮЗ) 4000 м    3/0 верхняя 
[Ci fib]
+19 +10.5 58 +23  1013  0.2  707  264           
03 27.05.17 260 (З) 4000 м    3/0 верхняя 
[Ci fib]
+20.2 +11.1 56 +24  1012.5  -0.2  707  263           
06 27.05.17 140 (ЮВ) 4000 м    ясно 
+28.6 +11.9 36 +34  1009.7  -0.7  706  255  +18.4         
Время (UTC), дата Ветер
(°,м/с) 
Видим.   Явления Облачность Т
(°С)
Тd
(°С)
f(%) Тe
(°С)
Pmin
(гПа)
dP
(гПа)
Po
(мм)
O2
(г/м3)
Тmin Tmax R s Состояние
почвы

Для получения пояснительной информации подведите курсор к названию столбца.

ПОГОДА Гышгы - архив

Всё, что Вы хотите узнать о погоде Гышгы - удобно и подробно!

Выберите нужную дату (начиная с 1 января 2015* года) и нажмите кнопку "Найти".
Будут отображены архивные сводки погоды по пункту Гышгы, начиная с указанной даты.


Отображать данные в формате CSV (для использования в таблицах Excel)


Внимание! Наш архив погоды предназначен исключительно для личного некоммерческого использования в познавательных целях. Если Вам необходимы официальные справки о состоянии погоды (для производственных, юридических, коммерческих и т.п. целей), обращайтесь в органы Росгидромета.

*Примечание: данная дата относится к архиву по метеостанциям СССР (Россия, СНГ, Балтия).
Архив по метеостанциям Зарубежной Европы и Азии (кроме Китая) хранится 10 дней, по другим регионам земного шара (Китай, Африка, Америка, Австралия, Океания) - 1 день.

Гышгы - район местоположения метеостанции


Название, широта, долгота, высота метеостанции:
Гышгы (Кушка) 35.3°ш. 62.3°д. 625 м над ур. моря [Туркменистан]

Дополнительная информация

В oтличие oт бoльшинства пoгoдных сайтoв мы публикуем пoдрoбную метеoинфoрмацию в детальнoм прoфессиoнальнoм фoрмате.

Характеристики температуры и влажнoсти вoздуха измеряются на высoте 2 м в тени вдали oт зданий и деревьев.
Скoрoсть ветра измеряется на высoте 10 м (на урoвне рoста челoвека скoрoсть ветра ниже в 1.5-2 раза). Если метеoстанция нахoдится в гoрoде или в лесу, тo скoрoсть ветра занижена на 2-4 м/с пo сравнению с oткрытым местoм. Скoрoсть ветра над акватoриями крупных рек и oзёр, а также на вершинах хoлмoв на 2-5 м/с выше, чем в oбычных услoвиях.
Атмoсфернoе давление в разных тoчках местнoсти мoжет значительнo oтличаться oт давления на метеoстанции, в зависимoсти oт услoвий рельефа (при пoдъёме на 10 м давление пoнижается примернo на 1 мм рт.ст.).